Regional Weather Roundup
Issued by NWS

Home | Current Version | Previous Version | Text Only | Print | Product List | Glossary On
Versions: 1 2 3 4 5 6 7 8 9 10 11 12 13 14 15 16 17 18 19 20 21 22 23 24 25 26 27 28 29 30 31 32 33 34 35 36 37 38 39 40 41 42 43 44 45 46 47 48 49 50
000
ASUS45 KBOU 240007
RWRCO

WEATHER ROUNDUP FOR COLORADO
NATIONAL WEATHER SERVICE DENVER/BOULDER CO
600 PM MDT SUN JUL 23 2017

NOTE: "FAIR" INDICATES FEW OR NO CLOUDS BELOW 12000 FEET WITH NO
SIGNIFICANT WEATHER AND/OR OBSTRUCTIONS TO VISIBILITY.

COZ001>005-013-030-031-240100-
...NORTHWEST COLORADO...

CITY           SKY/WX    TMP DP  RH WIND       PRES   REMARKS
CRAIG          FAIR      91  21   8 CALM      30.12F
HAYDEN         FAIR     N/A N/A N/A W6        30.15F
MEEKER         FAIR      90  27  10 N10       30.13F
RABBIT EARS PA CLOUDY    70  32  24 W3        30.52F
STEAMBOAT SPGS FAIR      88  24   9 SW7       30.17F
WALDEN         FAIR      75  37  25 SE7       30.31F
$$

COZ006>008-011-240100-
...WEST CENTRAL VALLEYS...

CITY           SKY/WX    TMP DP  RH WIND       PRES   REMARKS
GRAND JUNCTION FAIR      96  28   9 S7        29.98F
MONTROSE       FAIR      79  49  34 S31G39    30.15S
EAGLE          SUNNY     90  34  13 CALM      30.15F
RIFLE          FAIR      94  31  10 W7        30.04F
DELTA          FAIR      90  46  21 S25G31    30.06R
NUCLA          FAIR      81  45  28 E22G30    30.19F
$$

COZ017>023-064>068-240100-
...SOUTHWEST COLORADO...

CITY           SKY/WX    TMP DP  RH WIND       PRES   REMARKS
DURANGO        FAIR      80  44  27 N14       30.20F
CORTEZ         PTSUNNY   80  51  36 NE15      30.14F
PAGOSA SPRINGS FAIR      74  43  32 NW12      30.29F
TELLURIDE      CLOUDY    61  46  57 E9G17     30.48S
WOLF CREEK PAS FAIR      55  37  50 SW6       30.69F
$$

COZ009-010-012-014-032>034-037-058>063-240100-
...CENTRAL COLORADO...

CITY           SKY/WX    TMP DP  RH WIND       PRES   REMARKS
ASPEN          FAIR      78  42  27 SE12G22   30.27R
BUENA VISTA    CLOUDY    75  37  25 N5        30.33R
COPPER MTN     NOT AVBL
BERTHOUD PASS  FAIR      50  34  53 SE16G24   30.70F
COTTONWOOD PAS LGT RAIN  70  36  28 CALM      30.50R
GUNNISON       FAIR      75  46  35 SW8       30.27S
KREMMLING      FAIR      91  32  12 S8        30.23F
LEADVILLE      PTSUNNY   65  35  33 S12       30.48R THUNDER
MONARCH PASS   FAIR      59  34  38 E17G23    30.74F
SALIDA         FAIR      83  41  22 SE15G23   30.35S
SUNLIGHT       FAIR      66  34  30 W6        30.56S
WILKERSON PASS CLOUDY    52  34  50 SE5       30.67S
$$

COZ069>075-240100-
...SAN LUIS VALLEY/SANGRE DE CRISTO MOUNTAINS...

CITY           SKY/WX    TMP DP  RH WIND       PRES   REMARKS
ALAMOSA        FAIR      76  46  34 S7        30.29S
DEL NORTE      FAIR      74  47  38 E14G23    30.32S
LA VETA PASS   NOT AVBL
SAGUACHE         N/A    N/A N/A N/A MISG        N/A
$$

COZ035-036-038>040-240100-
...NORTHERN COLORADO FRONT RANGE...

CITY           SKY/WX    TMP DP  RH WIND       PRES   REMARKS
DENVER INTL AP PTSUNNY   87  45  23 SE17      30.11F
DMNS CITY PARK   N/A     85  44  23 SW12      30.11F
AURORA         PTSUNNY   82  51  33 S6        30.15F
FRONT RANGE AP FAIR      88  43  20 SE12      30.14F
ERIE MUNI ARPT FAIR      88  41  19 SE9       30.08F
BOULDER MUN AP FAIR      90  45  20 E9G17     30.09F
CENTENNIAL     PTSUNNY   85  45  24 S13       30.16F
BROOMFIELD     FAIR      86  43  22 S14G20    30.14F
FORT COLLINS   FAIR      92  45  19 SE8       30.09F
LONGMONT       FAIR      94  43  17 E7        30.09F
$$

COZ041-046-047-076>085-087-088-240100-
...PIKES PEAK/PALMER DIVIDE AND SOUTHERN FOOTHILLS...

CITY           SKY/WX    TMP DP  RH WIND       PRES   REMARKS
COLO. SPRINGS  PTSUNNY   82  49  31 E9        30.23S
A. F. ACADEMY  PTSUNNY   76  53  44 SW5       30.24F
SCHRIEVER AFB  FAIR      79  46  30 SE7       30.23S
CHEYENNE MTN   FAIR      76  44  32 E3        30.23F
ELLICOTT       FAIR     N/A N/A N/A S8        30.21S
FALCON           N/A     76  47  36 S7        30.29F
FORT CARSON    FAIR      85  48  27 E8        30.18F
LIMON          FAIR      81  49  32 SE13      30.16S
MONUMENT HILL  FAIR      73  50  43 S8        30.29F
CANON CITY     MOSUNNY   90  50  25 MISG      30.12F
WALSENBURG     FAIR      88  39  18 E10       30.19S
TRINIDAD       FAIR      85  44  23 E10       30.16S
$$

COZ042>045-048>051-090-091-240100-
...NORTHEAST COLORADO...

CITY           SKY/WX    TMP DP  RH WIND       PRES   REMARKS
GREELEY ARPT   FAIR      91  54  28 E9        30.06F
AKRON          FAIR      87  46  24 SE12      30.10F
BURLINGTON     FAIR      88  54  31 SE10      30.09F
WRAY           NOT AVBL
YUMA           FAIR      88  36  15 SE9       30.07S
STERLING       FAIR      90  52  27 SE9       30.03S
HOLYOKE        FAIR      95  54  24 S7        30.04F
FORT MORGAN    FAIR      88  45  22 E10       30.07F
$$

COZ086-089-092>099-240100-
...SOUTHEAST COLORADO...

CITY           SKY/WX    TMP DP  RH WIND       PRES   REMARKS
PUEBLO         PTSUNNY   92  48  22 SE9       30.08S
LA JUNTA       FAIR      90  56  31 E16       30.07S
LAMAR          FAIR      90  56  31 SE9       30.03S
SPRINGFIELD      N/A     84  58  40 E10       30.08F
$$



USA.gov is the U.S. government's official web portal to all federal, state and local government web resources and services.